Location: Kailua
(21.4020°N, 157.7390°W)
Time: 12:10:16
(UTC-10:00)

Daily predictions for brighter satellites

Satellite Brightness Start Highest point End
(mag) Time Altitude Azimuth Time Altitude Azimuth Time Altitude Azimuth
Aureole 2 Rocket 2.4 18:36:24 10° S 18:39:43 70° ESE 18:43:21 10° NNE
Cosmos 1634 Rocket 4.0 18:34:00 10° N 18:40:06 63° E 18:46:10 10° SSE
Abrixas rocket 3.2 18:37:11 10° NNW 18:40:08 29° NE 18:43:04 10° ESE
GPS 2-04 Rocket1 2.9 18:36:50 10° NW 18:41:09 64° NNE 18:45:22 10° ESE
SMAP 4.4 18:38:34 10° S 18:43:00 44° W 18:47:25 10° NNW
CCE 1 Rocket 4.4 18:40:24 10° SW 18:44:16 44° SSE 18:49:52 11° ENE
GPS 2-15 Rocket1 3.3 18:42:44 10° W 18:47:31 74° S 18:52:21 10° E
OAO 3 Rocket 4.1 18:43:51 10° NW 18:48:14 32° NNE 18:52:09 12° E
YAOGAN 1 4.1 18:45:30 10° S 18:49:34 40° W 18:53:38 10° NNW
Meteor 1-28 Rocket 3.5 18:45:56 10° N 18:49:37 71° WNW 18:53:18 10° SSW
Helios 1B rocket 4.2 18:52:03 12° E 18:53:04 13° E 18:55:02 10° SE
Meteor 1-11 4.3 18:49:35 10° S 18:55:12 85° W 19:00:55 10° N
SJ-6B 3.9 18:52:02 10° SE 18:55:18 25° ENE 18:58:37 10° NNE
Cosmos 1461 2.9 18:50:59 10° SSW 18:55:19 78° ESE 18:59:30 10° NNE
COSMO-SKYMED 1 4.3 18:54:49 10° N 18:58:45 35° WNW 19:02:41 10° SW
XTE 4.4 18:56:44 10° SW 18:59:22 28° SSE 19:01:17 15° ESE
USA 229 DEB 4.1 18:54:36 10° S 19:00:57 42° ESE 19:06:49 12° NE
USA 229 4.1 18:54:43 10° S 19:01:03 41° ESE 19:06:51 12° NE
Cosmos 1666 Rocket 4.0 18:58:01 10° SSE 19:02:00 38° E 19:06:02 10° NNE
Iridium 4 Rocket 4.5 18:58:51 10° SE 19:02:31 21° E 19:04:42 16° NE
BREEZE-M DEB (TANK) 2.8 18:59:45 10° NNW 19:03:08 29° NE 19:04:31 19° E
Cosmos 2058 3.5 19:00:05 10° SSW 19:04:08 59° W 19:08:11 10° N
GPS 2-14 Rocket1 2.7 19:01:37 10° W 19:05:42 81° S 19:08:26 19° E
Cosmos 1703 3.1 19:05:49 10° S 19:09:42 82° E 19:13:36 10° N
Cosmos 1844 Rocket 3.0 19:04:26 10° NNW 19:10:03 71° WSW 19:15:37 10° S
Coronas F rocket 3.7 19:11:33 10° SE 19:11:34 10° SE 19:11:34 10° SE
Cosmos 304 Rocket 4.3 19:12:12 10° SSW 19:16:56 60° WNW 19:21:41 10° N
Fermi 4.1 19:18:50 10° WNW 19:22:50 50° N 19:24:13 34° ENE
Longmarch 3A Rocket 1.0 19:20:39 10° WSW 19:22:48 44° S 19:22:48 44° S
FENGYUN 3A 4.2 19:19:19 10° SE 19:24:03 33° ENE 19:28:48 10° N
Cosmos 1340 Rocket 4.4 19:21:29 10° SSW 19:25:09 36° W 19:28:47 10° NNW
GPS 2-18 Rocket1 4.5 19:21:45 10° W 19:25:19 34° SSW 19:27:43 17° SE
Milstar 3 2.9 19:19:29 10° WNW 19:26:04 68° NNE 19:31:01 24° E
Cosmos 773 Rocket 3.9 19:22:24 10° S 19:27:26 62° ESE 19:30:58 20° NNE
Cosmos 1356 Rocket 3.4 19:24:08 10° S 19:28:09 78° W 19:32:09 10° N
Cosmos 2279 Rocket 4.1 19:25:56 10° N 19:32:09 79° W 19:38:22 10° S
Cosmos 1626 2.7 19:29:11 10° SSW 19:32:52 59° W 19:36:34 10° N
Cosmos 1470 Rocket 4.4 19:30:38 10° SSE 19:33:44 31° ESE 19:33:44 31° ESE
METEOR-M 4.2 19:30:36 10° S 19:35:56 83° WSW 19:41:18 10° NNW
Palapa 6 Rocket 4.2 19:29:52 10° WSW 19:36:21 72° SSE 19:40:03 32° E
Cosmos 1603 3.9 19:31:00 10° S 19:36:22 47° ESE 19:38:02 36° ENE
Centaur AC-72 3.3 19:31:46 10° W 19:37:31 80° S 19:44:12 25° E
Atlas Centaur 2 1.4 19:36:11 10° WNW 19:40:50 74° SSW 19:41:53 47° SE
Nadezhda 4 Rocket 4.1 19:34:49 10° S 19:41:00 78° W 19:47:16 10° N
Cosmos 372 Rocket 3.8 19:36:00 10° NNW 19:41:05 84° ENE 19:46:12 10° SSE
GPS 2-17 Rocket1 3.2 19:37:24 10° WSW 19:41:46 58° S 19:42:43 47° ESE
Centaur Rocket 3.5 19:41:28 10° WSW 19:43:27 29° SW 19:43:27 29° SW
Cosmos 2026 Rocket 4.4 19:39:53 10° SSE 19:45:32 38° E 19:45:32 38° E
EPKM 3.1 19:41:37 10° W 19:45:48 42° NW 19:45:48 42° NW
NOSS 3-1 (C) 4.1 19:50:44 10° S 19:54:34 32° SE 19:54:34 32° SE
Cosmos 2278 Rocket 2.5 19:51:31 10° NNW 19:57:08 66° WSW 20:02:44 10° S
Cosmos 1092 Rocket 4.1 19:52:12 10° S 19:58:29 80° W 20:04:51 10° N
Tiangong 1 3.3 19:55:50 10° SW 19:57:02 22° SW 19:57:02 22° SW
ALOS 2.1 19:54:33 10° SSE 19:59:12 90° SW 20:03:53 10° NNW
BREEZE-M DEB (TANK) 3.2 19:59:46 10° SW 20:03:00 68° NW 20:05:02 41° NNE
Aureole 1 Rocket 4.1 20:01:07 10° SSW 20:05:15 50° WNW 20:08:13 24° N
Hubble Space Telescope 1.4 20:01:59 10° WNW 20:05:25 53° WSW 20:05:25 53° WSW
USA 215 3.1 20:07:48 58° E 20:08:44 65° NE 20:15:12 10° NNW
Spot 2 Rocket 3.4 20:04:28 10° S 20:09:31 81° WSW 20:14:35 10° NNW
SEDSat Delta rocket 3.5 20:05:32 10° WNW 20:10:01 64° WNW 20:10:01 64° WNW
Intelsat 5-1 Rocket 2.4 20:07:27 10° WNW 20:10:32 72° NW 20:10:32 72° NW
ATLAS 2A CENTAUR R/B 2.3 20:08:44 10° WSW 20:10:25 45° WSW 20:10:25 45° WSW
Cosmos 292 Rocket 4.0 20:08:04 10° SSW 20:12:17 66° SW 20:12:17 66° SW
Centaur D-1A AC-31 3.8 19:26:09 10° WNW 20:14:06 51° SW 20:18:48 20° SSE
Resurs 01 Rocket 2.5 20:13:39 10° S 20:24:34 - NNW 20:17:07 45° SW
Timation 1 Rocket 4.4 20:15:31 10° NNW 20:20:39 67° NNW 20:20:39 67° NNW
Centaur AC-119 4.5 20:22:29 10° WNW 20:23:32 22° WNW 20:23:32 22° WNW
Helios 1B rocket 4.4 20:28:25 27° WNW 20:28:25 27° WNW 20:31:46 10° SW
Cosmos 1680 Rocket 4.4 20:30:00 10° SSW 20:34:06 45° WSW 20:34:06 45° WSW
Cosmos 1655 Rocket 4.4 20:29:48 10° S 20:34:37 54° SSW 20:34:37 54° SSW
H-2A ROCKET BODY 3.9 20:49:31 10° WNW 20:57:48 32° NW 20:57:48 32° NW
